Location: Apeadero de Los Molinos-Guadarrama
(40.7091°N, 4.0689°W)
Time: 11:26:05
(UTC+00:00)

MOS 1 - Pass Details

Date: 14 May 2021
Orbit: 879 x 890 km, 99.1° (Epoch: 18 June)

Event Time Altitude Azimuth Distance (km) Brightness Sun altitude
Exits shadow 20:31:32 - 168° (SSE) 2,896 6.5 -11.4°
Reaches altitude 10° 20:32:28 10° 169° (S) 2,534 6.2 -11.6°
Maximum altitude 20:38:07 79° 255° (WSW) 904 4.4 -12.4°
Drops below altitude 10° 20:43:50 10° 344° (NNW) 2,558 7.6 -13.2°
Sets 20:46:14 0° 345° (NNW) 3,503 8.4 -13.6°
